TimeMST,TemperatureF,Dew PointF,Humidity,Sea Level PressureIn,VisibilityMPH,Wind Direction,Wind SpeedMPH,Gust SpeedMPH,PrecipitationIn,Events,Conditions,WindDirDegrees,DateUTC
12:53 AM,32.0,23.0,69,29.94,10.0,Calm,Calm,-,N/A,,Clear,0,2013-03-06 07:53:00
1:53 AM,33.1,21.9,64,29.92,10.0,Calm,Calm,-,N/A,,Clear,0,2013-03-06 08:53:00
2:53 AM,30.0,24.1,79,29.89,10.0,Calm,Calm,-,N/A,,Clear,0,2013-03-06 09:53:00
3:53 AM,32.0,21.9,66,29.86,10.0,NNE,5.8,-,N/A,,Clear,20,2013-03-06 10:53:00
4:53 AM,28.9,23.0,78,29.85,10.0,Calm,Calm,-,N/A,,Clear,0,2013-03-06 11:53:00
5:53 AM,28.9,23.0,78,29.83,10.0,Calm,Calm,-,N/A,,Clear,0,2013-03-06 12:53:00
6:53 AM,30.0,23.0,75,29.81,10.0,East,4.6,-,N/A,,Mostly Cloudy,90,2013-03-06 13:53:00
7:53 AM,28.9,25.0,85,29.81,10.0,Calm,Calm,-,N/A,,Overcast,0,2013-03-06 14:53:00
8:22 AM,30.2,24.8,80,29.75,7.0,NNW,3.5,-,0.00,Snow,Light Snow,330,2013-03-06 15:22:00
8:33 AM,30.2,24.8,80,29.76,2.5,NE,3.5,-,0.00,Snow,Light Snow,40,2013-03-06 15:33:00
8:36 AM,30.2,24.8,80,29.76,1.2,Calm,Calm,-,0.00,Snow,Light Snow,0,2013-03-06 15:36:00
8:40 AM,30.2,24.8,80,29.76,0.8,Calm,Calm,-,0.01,Snow,Light Snow,0,2013-03-06 15:40:00
8:53 AM,30.0,26.1,85,29.84,1.0,NNW,6.9,-,0.01,Snow,Light Snow,340,2013-03-06 15:53:00
9:03 AM,30.2,26.6,86,29.77,0.8,NW,4.6,-,0.00,Snow,Light Snow,320,2013-03-06 16:03:00
9:15 AM,30.2,28.4,93,29.77,1.0,NW,5.8,-,0.01,Snow,Light Snow,320,2013-03-06 16:15:00
9:21 AM,30.2,28.4,93,29.76,1.5,NNW,4.6,-,0.01,Snow,Light Snow,330,2013-03-06 16:21:00
9:41 AM,30.2,28.4,93,29.75,3.0,North,3.5,-,0.01,Snow,Light Snow,350,2013-03-06 16:41:00
9:48 AM,30.2,28.4,93,29.75,4.0,Calm,Calm,-,0.01,Snow,Light Snow,0,2013-03-06 16:48:00
9:53 AM,30.9,28.9,92,29.82,4.0,Calm,Calm,-,0.01,Snow,Light Snow,0,2013-03-06 16:53:00
10:21 AM,32.0,28.4,87,29.74,5.0,West,3.5,-,0.00,,Overcast,270,2013-03-06 17:21:00
10:28 AM,32.0,28.4,87,29.74,5.0,WNW,4.6,-,0.00,,Overcast,290,2013-03-06 17:28:00
10:53 AM,35.1,30.0,82,29.79,7.0,Calm,Calm,-,0.00,,Mostly Cloudy,0,2013-03-06 17:53:00
11:00 AM,33.8,28.4,81,29.72,10.0,Calm,Calm,-,N/A,,Mostly Cloudy,0,2013-03-06 18:00:00
11:27 AM,35.6,30.2,81,29.71,10.0,Calm,Calm,-,N/A,,Clear,0,2013-03-06 18:27:00
11:53 AM,36.0,30.0,79,29.76,10.0,Calm,Calm,-,N/A,,Scattered Clouds,0,2013-03-06 18:53:00
12:53 PM,37.9,30.9,76,29.75,10.0,Calm,Calm,-,N/A,,Mostly Cloudy,0,2013-03-06 19:53:00
1:46 PM,37.4,32.0,81,29.68,10.0,Calm,Calm,-,0.00,,Overcast,0,2013-03-06 20:46:00
1:53 PM,39.0,32.0,76,29.74,10.0,Calm,Calm,-,0.00,,Mostly Cloudy,0,2013-03-06 20:53:00
2:53 PM,39.9,33.1,77,29.73,10.0,Calm,Calm,-,N/A,,Clear,0,2013-03-06 21:53:00
3:53 PM,41.0,33.1,73,29.71,10.0,Calm,Calm,-,N/A,,Partly Cloudy,0,2013-03-06 22:53:00
4:53 PM,42.1,34.0,73,29.73,10.0,NW,8.1,-,N/A,,Mostly Cloudy,310,2013-03-06 23:53:00
5:11 PM,41.0,33.8,76,29.68,10.0,NW,13.8,-,N/A,,Overcast,320,2013-03-07 00:11:00
5:49 PM,37.4,33.8,87,29.72,2.5,West,9.2,-,0.09,Rain,Rain,260,2013-03-07 00:49:00
5:53 PM,37.9,35.1,89,29.79,4.0,West,5.8,-,0.10,Rain,Rain,260,2013-03-07 00:53:00
6:26 PM,37.4,33.8,87,29.69,10.0,East,12.7,-,0.02,,Mostly Cloudy,80,2013-03-07 01:26:00
6:53 PM,37.0,34.0,89,29.77,10.0,SSE,8.1,-,0.02,,Clear,150,2013-03-07 01:53:00
7:53 PM,35.1,33.1,92,29.79,10.0,Calm,Calm,-,N/A,,Clear,0,2013-03-07 02:53:00
8:53 PM,34.0,33.1,96,29.79,10.0,Calm,Calm,-,N/A,,Partly Cloudy,0,2013-03-07 03:53:00
9:53 PM,34.0,33.1,96,29.81,10.0,SSE,3.5,-,N/A,,Clear,160,2013-03-07 04:53:00
10:29 PM,33.8,33.8,100,29.78,9.0,NW,9.2,-,N/A,,Overcast,310,2013-03-07 05:29:00
10:42 PM,33.8,33.8,100,29.77,6.0,ENE,8.1,-,0.00,Rain,Light Rain,60,2013-03-07 05:42:00
10:53 PM,35.1,33.1,92,29.83,10.0,NE,8.1,-,0.01,,Overcast,40,2013-03-07 05:53:00
11:01 PM,35.6,33.8,93,29.77,10.0,NNE,3.5,-,N/A,,Overcast,20,2013-03-07 06:01:00
11:53 PM,33.1,33.1,100,29.87,7.0,West,4.6,-,N/A,,Mostly Cloudy,270,2013-03-07 06:53:00